CW3590 Weather Reports


Display with metric or nautical units.
time (UTC)temp
F
wind
direction
speed
MPH
gust
MPH
rain 1hr
in
rain 24hr
in
rain mn
in
humidity
%
barometer
mb
20260903045011 76 160 2.0 5.0 0.00 0.25 0.25 94 1012.8
20260903044011 76 166 2.0 4.0 0.00 0.25 0.25 94 1013.0
20260903043010 76 160 2.0 5.0 0.00 0.25 0.25 94 1013.0
20260903042011 76 154 2.0 5.0 0.00 0.25 0.25 93 1013.1
20260903041010 76 160 2.0 7.0 0.00 0.25 0.25 93 1012.9
20260903040010 76 165 2.0 4.0 0.01 0.25 0.25 93 1012.8
20260903035011 77 145 2.0 8.0 0.02 0.25 0.25 93 1012.5
20260903034010 77 137 2.0 8.0 0.04 0.25 0.25 92 1012.6
20260903032011 77 163 2.0 7.0 0.09 0.25 0.25 92 1012.8
20260903031011 77 117 2.0 4.0 0.13 0.25 0.25 91 1012.7
20260903025010 77 118 2.0 6.0 0.22 0.23 0.23 91 1012.6
20260903024010 77 100 2.0 6.0 0.20 0.21 0.21 90 1012.5
20260903023010 77 97 2.0 7.0 0.18 0.19 0.19 89 1012.4
20260903022011 77 94 2.0 7.0 0.16 0.16 0.16 89 1012.3
20260903021010 78 101 2.0 5.0 0.11 0.11 0.11 88 1012.0
20260903014010 78 83 2.0 7.0 0.01 0.01 0.01 87 1011.9
20260903013011 79 100 2.0 7.0 0.01 0.01 0.01 86 1011.7
20260903012010 79 160 2.0 9.0 0.00 0.00 0.00 85 1011.7
20260903011010 79 119 3.0 9.0 0.00 0.00 0.00 84 1011.7
20260903005010 80 136 2.0 7.0 0.00 0.00 0.00 81 1011.6
20260903004010 80 146 2.0 7.0 0.00 0.00 0.00 79 1011.5
20260903003010 81 150 3.0 14.0 0.00 0.00 0.00 79 1011.6
20260903002011 81 58 3.0 18.0 0.00 0.00 0.00 78 1011.6
20260903001011 82 130 3.0 10.0 0.00 0.00 0.00 77 1011.6
20260903000011 82 78 3.0 14.0 0.00 0.00 0.00 76 1011.6
20260902234010 82 131 3.0 13.0 0.00 0.00 0.00 75 1011.8
20260902233010 83 111 3.0 11.0 0.00 0.00 0.00 75 1011.8
20260902232011 83 122 3.0 13.0 0.00 0.00 0.00 74 1011.7
20260902231010 83 99 4.0 13.0 0.00 0.00 0.00 73 1011.6
20260902230011 84 131 3.0 13.0 0.00 0.00 0.00 73 1011.5
20260902225010 84 101 4.0 12.0 0.00 0.00 0.00 73 1011.4
20260902224010 84 109 3.0 10.0 0.00 0.00 0.00 71 1011.4
20260902223010 85 132 3.0 11.0 0.00 0.00 0.00 70 1011.4
20260902222010 87 123 3.0 10.0 0.00 0.00 0.00 66 1011.3
20260902221010 88 138 4.0 12.0 0.00 0.00 0.00 66 1011.4
20260902220010 87 88 4.0 20.0 0.00 0.00 0.00 66 1011.3
20260902215010 88 144 3.0 15.0 0.00 0.00 0.00 64 1011.2
20260902214010 88 152 3.0 11.0 0.00 0.00 0.00 66 1011.3
20260902212010 88 75 4.0 11.0 0.00 0.00 0.00 67 1011.2
20260902211010 88 89 5.0 13.0 0.00 0.00 0.00 67 1011.4
20260902210010 89 67 5.0 17.0 0.00 0.00 0.00 65 1011.4
20260902205010 90 130 3.0 14.0 0.00 0.00 0.00 64 1011.4
20260902204010 89 88 4.0 9.0 0.00 0.00 0.00 65 1011.7
20260902203010 90 66 4.0 14.0 0.00 0.00 0.00 64 1011.7
20260902202011 89 63 4.0 10.0 0.00 0.00 0.00 65 1011.7
20260902201009 89 73 4.0 17.0 0.00 0.00 0.00 66 1011.8
20260902200010 90 89 4.0 16.0 0.00 0.00 0.00 65 1011.8
20260902194010 89 98 5.0 10.0 0.00 0.00 0.00 66 1012.1
20260902193010 89 69 4.0 21.0 0.00 0.00 0.00 65 1012.0
20260902192009 89 84 3.0 12.0 0.00 0.00 0.00 67 1012.1
20260902191010 88 98 4.0 15.0 0.00 0.00 0.00 67 1012.2
20260902190010 88 61 4.0 15.0 0.00 0.00 0.00 68 1012.3
20260902185010 87 66 4.0 16.0 0.00 0.00 0.00 69 1012.5
20260902184009 88 152 3.0 8.0 0.00 0.00 0.00 68 1012.5
20260902183010 88 102 4.0 9.0 0.00 0.00 0.00 69 1012.8
20260902182009 87 83 4.0 17.0 0.00 0.00 0.00 68 1013.1
20260902181010 88 124 3.0 10.0 0.00 0.00 0.00 69 1013.2
20260902174011 88 82 5.0 14.0 0.00 0.00 0.00 67 1013.3
20260902173010 87 42 5.0 15.0 0.00 0.00 0.00 68 1013.3
20260902172010 87 46 4.0 11.0 0.00 0.00 0.00 70 1013.2
20260902171009 86 50 4.0 14.0 0.00 0.00 0.00 72 1013.5
20260902170010 85 47 3.0 11.0 0.00 0.00 0.00 72 1013.8
20260902165009 85 49 4.0 14.0 0.00 0.00 0.00 72 1014.0
20260902164010 85 48 4.0 16.0 0.00 0.00 0.00 74 1014.2
20260902163009 85 52 5.0 14.0 0.00 0.00 0.00 76 1014.3
20260902162010 84 58 3.0 12.0 0.00 0.00 0.00 78 1014.8
20260902161009 84 40 3.0 12.0 0.00 0.00 0.00 79 1014.5
20260902160010 83 58 4.0 15.0 0.00 0.00 0.00 80 1014.3
20260902155009 83 48 4.0 16.0 0.00 0.00 0.00 81 1014.3
20260902153010 83 46 3.0 10.0 0.00 0.00 0.00 81 1014.4
20260902152010 83 63 3.0 12.0 0.00 0.00 0.00 84 1014.3
20260902151009 81 60 3.0 10.0 0.00 0.00 0.00 86 1014.4
20260902150009 81 57 4.0 10.0 0.00 0.00 0.00 87 1014.2
20260902145010 80 84 3.0 11.0 0.00 0.00 0.00 88 1014.5
20260902144010 80 51 4.0 10.0 0.00 0.00 0.00 89 1014.5
20260902142010 79 55 3.0 9.0 0.00 0.00 0.00 90 1014.3
20260902141010 78 35 2.0 6.0 0.00 0.00 0.00 90 1014.3
20260902140010 78 43 3.0 10.0 0.00 0.00 0.00 90 1014.3
20260902135010 78 53 3.0 9.0 0.00 0.00 0.00 90 1014.3
20260902134009 77 60 2.0 8.0 0.00 0.00 0.00 90 1014.3
20260902132009 77 64 3.0 10.0 0.00 0.00 0.00 89 1014.1
20260902131010 76 56 2.0 6.0 0.00 0.00 0.00 89 1014.0
20260902130009 76 48 1.0 7.0 0.00 0.00 0.00 88 1014.1
20260902123009 76 65 0.0 5.0 0.00 0.00 0.00 87 1014.1
20260902122010 76 59 1.0 3.0 0.00 0.00 0.00 86 1014.1
20260902121009 76 63 1.0 3.0 0.00 0.00 0.00 86 1014.1
20260902120010 76 23 1.0 6.0 0.00 0.00 0.00 86 1014.1
20260902114009 76 18 1.0 3.0 0.00 0.00 0.00 85 1014.0
20260902112010 76 5 1.0 3.0 0.00 0.00 0.00 84 1013.7
20260902110009 76 19 1.0 3.0 0.00 0.00 0.00 84 1013.8
20260902105009 76 21 0.0 2.0 0.00 0.00 0.00 83 1013.7
20260902103010 77 0 0.0 0.0 0.00 0.00 0.00 82 1013.7
20260902102009 77 0 0.0 0.0 0.00 0.00 0.00 82 1013.9
20260902101009 77 0 0.0 1.0 0.00 0.00 0.00 82 1013.9
20260902095010 77 0 0.0 2.0 0.00 0.00 0.00 81 1013.6
20260902093010 77 0 0.0 1.0 0.00 0.00 0.00 81 1013.6
20260902092009 77 0 0.0 1.0 0.00 0.00 0.00 80 1013.7
20260902085009 78 46 1.0 4.0 0.00 0.00 0.00 80 1013.6
20260902081009 78 0 0.0 1.0 0.00 0.00 0.00 78 1013.7
20260902080009 79 0 0.0 3.0 0.00 0.00 0.00 77 1013.7
20260902075010 79 0 0.0 1.0 0.00 0.00 0.00 77 1013.9
20260902074009 79 0 0.0 2.0 0.00 0.00 0.00 76 1013.8
20260902073009 79 0 0.0 2.0 0.00 0.00 0.00 75 1014.0
20260902072009 79 0 0.0 0.0 0.00 0.00 0.00 75 1014.1
20260902071009 79 0 0.0 1.0 0.00 0.00 0.00 75 1013.9
20260902070009 80 0 0.0 0.0 0.00 0.00 0.00 74 1013.9
20260902065009 80 0 0.0 1.0 0.00 0.00 0.00 74 1013.9
20260902064009 80 0 0.0 1.0 0.00 0.00 0.00 73 1014.0
20260902063008 80 0 0.0 0.0 0.00 0.00 0.00 73 1014.0
20260902062009 81 0 0.0 1.0 0.00 0.00 0.00 73 1014.0
20260902061010 81 0 0.0 1.0 0.00 0.00 0.00 73 1014.1
20260902060009 81 0 0.0 1.0 0.00 0.00 0.00 72 1014.0
20260902055009 82 0 0.0 1.0 0.00 0.00 0.00 72 1014.0
20260902054009 82 0 0.0 0.0 0.00 0.00 0.00 72 1014.1
20260902052009 82 0 0.0 1.0 0.00 0.00 0.00 71 1014.0
20260902051009 83 0 0.0 1.0 0.00 0.00 0.00 70 1014.0
20260902050010 83 0 0.0 2.0 0.00 0.00 0.00 70 1014.0